Weather History for KFSE - April, 2012

Change the Weather History Date:

Thursday, April 5, 2012

  Actual Average Record
Temperature  
Mean Temperature 50 °F -  
Max Temperature 64 °F 45 °F 69 °F (1991)
Min Temperature 35 °F 23 °F -5 °F (1979)
Degree Days  
Heating Degree Days 16    
Moisture  
Dew Point 26 °F    
Average Humidity 44    
Maximum Humidity 65    
Minimum Humidity 24    
Precipitation  
Precipitation 0.00 in - - ()
Sea Level Pressure  
Sea Level Pressure 30.06 in    
Wind  
Wind Speed 10 mph (ESE)    
Max Wind Speed 16 mph    
Max Gust Speed 21 mph    
Visibility 10 miles    
Events      
Averages and records for this station are not official NWS values.
T = Trace of Precipitation, MM = Missing Value Source: NWS Daily Summary

Daily Weather History Graph

Daily Weather History Graph

Search for Another Location

Airport or City:

Trip Planner

Search our weather history database for the weather conditions in past years. The results will help you decide how hot, cold, wet, or windy it might be!

Date:

Astronomy

Apr. 05, 2012 Rise Set
Actual Time 6:52 AM CDT 7:59 PM CDT
Civil Twilight 6:21 AM CDT 8:30 PM CDT
Nautical Twilight 5:43 AM CDT 9:08 PM CDT
Astronomical Twilight 5:03 AM CDT 9:49 PM CDT
Moon 7:05 PM CDT (4/5) 5:53 AM CDT (4/5)
Length of Visible Light 14h 09m
Length of Day
13h 06m
Waxing Gibbous, 98% of the Moon is Illuminated
Apr 5
Waxing Gibbous
Apr 6
Full
Apr 13
Last Quarter
Apr 21
New
Apr 29
First Quarter

Hourly Weather History & Observations

Time (CDT) Temp. Windchill Dew Point Humidity Pressure Visibility Wind Dir Wind Speed Gust Speed Precip Events Conditions
12:15 AM 37.4 °F 31.4 °F 26.6 °F 65% 29.99 in 10.0 mi East 8.1 mph - N/A   Clear
12:35 AM 39.2 °F 33.0 °F 24.8 °F 56% 29.99 in 10.0 mi East 9.2 mph - N/A   Clear
12:55 AM 39.2 °F 33.6 °F 24.8 °F 56% 30.00 in 10.0 mi East 8.1 mph - N/A   Clear
1:14 AM 39.2 °F 33.0 °F 24.8 °F 56% 29.99 in 10.0 mi East 9.2 mph - N/A   Clear
1:35 AM 39.2 °F 35.9 °F 23.0 °F 52% 30.00 in 10.0 mi East 4.6 mph - N/A   Clear
1:55 AM 39.2 °F 33.0 °F 23.0 °F 52% 30.01 in 10.0 mi ESE 9.2 mph - N/A   Clear
2:15 AM 37.4 °F 31.4 °F 23.0 °F 56% 30.01 in 10.0 mi ESE 8.1 mph - N/A   Clear
2:35 AM 37.4 °F 30.8 °F 24.8 °F 60% 30.01 in 10.0 mi ESE 9.2 mph - N/A   Clear
2:55 AM 37.4 °F 30.8 °F 23.0 °F 56% 30.02 in 10.0 mi ESE 9.2 mph - N/A   Clear
3:14 AM 39.2 °F 32.5 °F 23.0 °F 52% 30.02 in 10.0 mi ESE 10.4 mph - N/A   Clear
3:35 AM 39.2 °F 33.0 °F 23.0 °F 52% 30.02 in 10.0 mi ESE 9.2 mph - N/A   Clear
3:55 AM 39.2 °F 32.0 °F 23.0 °F 52% 30.02 in 10.0 mi ESE 11.5 mph - N/A   Clear
4:15 AM 39.2 °F 32.0 °F 21.2 °F 49% 30.02 in 10.0 mi ESE 11.5 mph 17.3 mph N/A   Clear
4:35 AM 37.4 °F 30.3 °F 21.2 °F 52% 30.03 in 10.0 mi ESE 10.4 mph - N/A   Clear
4:55 AM 37.4 °F 30.3 °F 21.2 °F 52% 30.03 in 10.0 mi SE 10.4 mph - N/A   Clear
5:15 AM 37.4 °F 30.3 °F 23.0 °F 56% 30.04 in 10.0 mi SE 10.4 mph 17.3 mph N/A   Clear
5:35 AM 37.4 °F 30.3 °F 23.0 °F 56% 30.05 in 10.0 mi SE 10.4 mph - N/A   Clear
5:55 AM 37.4 °F 29.3 °F 23.0 °F 56% 30.06 in 10.0 mi SE 12.7 mph 17.3 mph N/A   Clear
6:15 AM 35.6 °F 28.6 °F 23.0 °F 60% 30.06 in 10.0 mi SE 9.2 mph - N/A   Clear
6:35 AM 35.6 °F 28.0 °F 21.2 °F 56% 30.06 in 10.0 mi SE 10.4 mph - N/A   Clear
6:55 AM 35.6 °F 27.5 °F 21.2 °F 56% 30.07 in 10.0 mi SE 11.5 mph 17.3 mph N/A   Clear
7:15 AM 35.6 °F 27.1 °F 23.0 °F 60% 30.07 in 10.0 mi SE 12.7 mph 16.1 mph N/A   Clear
7:35 AM 35.6 °F 27.5 °F 23.0 °F 60% 30.08 in 10.0 mi SE 11.5 mph 17.3 mph N/A   Clear
7:55 AM 37.4 °F 29.3 °F 23.0 °F 56% 30.08 in 10.0 mi ESE 12.7 mph 17.3 mph N/A   Clear
8:15 AM 37.4 °F 29.8 °F 24.8 °F 60% 30.09 in 10.0 mi ESE 11.5 mph 18.4 mph N/A   Clear
8:35 AM 37.4 °F 28.9 °F 24.8 °F 60% 30.09 in 10.0 mi SE 13.8 mph 17.3 mph N/A   Clear
8:55 AM 39.2 °F 30.8 °F 24.8 °F 56% 30.08 in 10.0 mi SE 15.0 mph 19.6 mph N/A   Clear
9:15 AM 42.8 °F 35.4 °F 26.6 °F 53% 30.09 in 10.0 mi SE 15.0 mph 19.6 mph N/A   Clear
9:35 AM 44.6 °F 37.8 °F 26.6 °F 49% 30.09 in 10.0 mi SE 15.0 mph 18.4 mph N/A   Clear
9:55 AM 46.4 °F 40.7 °F 28.4 °F 50% 30.09 in 10.0 mi SE 12.7 mph 20.7 mph N/A   Clear
10:14 AM 48.2 °F - 30.2 °F 50% 30.09 in 10.0 mi SE 10.4 mph 16.1 mph N/A   Clear
10:35 AM 51.8 °F - 30.2 °F 44% 30.09 in 10.0 mi ESE 12.7 mph - N/A   Clear
10:55 AM 51.8 °F - 30.2 °F 44% 30.09 in 10.0 mi SE 12.7 mph - N/A   Clear
11:15 AM 53.6 °F - 30.2 °F 41% 30.09 in 10.0 mi ESE 6.9 mph - N/A   Clear
11:35 AM 55.4 °F - 30.2 °F 38% 30.09 in 10.0 mi Calm Calm - N/A   Clear
11:54 AM 55.4 °F - 30.2 °F 38% 30.10 in 10.0 mi SE 8.1 mph - N/A   Clear
12:15 PM 57.2 °F - 30.2 °F 36% 30.09 in 10.0 mi East 9.2 mph - N/A   Clear
12:35 PM 57.2 °F - 28.4 °F 33% 30.09 in 10.0 mi ESE 9.2 mph - N/A   Clear
12:54 PM 57.2 °F - 28.4 °F 33% 30.09 in 10.0 mi SE 9.2 mph - N/A   Clear
1:15 PM 59.0 °F - 30.2 °F 34% 30.08 in 10.0 mi East 9.2 mph - N/A   Clear
1:34 PM 60.8 °F - 30.2 °F 31% 30.08 in 10.0 mi ESE 6.9 mph - N/A   Clear
1:55 PM 60.8 °F - 28.4 °F 29% 30.08 in 10.0 mi East 10.4 mph - N/A   Clear
2:15 PM 62.6 °F - 30.2 °F 30% 30.08 in 10.0 mi ESE 9.2 mph - N/A   Clear
2:34 PM 62.6 °F - 26.6 °F 26% 30.06 in 10.0 mi ESE 12.7 mph 19.6 mph N/A   Clear
2:55 PM 62.6 °F - 24.8 °F 24% 30.07 in 10.0 mi SSE 9.2 mph 19.6 mph N/A   Clear
3:15 PM 62.6 °F - 28.4 °F 27% 30.07 in 10.0 mi SE 10.4 mph 16.1 mph N/A   Clear
3:34 PM 62.6 °F - 28.4 °F 27% 30.06 in 10.0 mi SE 9.2 mph 16.1 mph N/A   Clear
3:55 PM 64.4 °F - 28.4 °F 26% 30.06 in 10.0 mi ESE 8.1 mph - N/A   Clear
4:15 PM 64.4 °F - 26.6 °F 24% 30.06 in 10.0 mi ESE 10.4 mph - N/A   Clear
4:35 PM 62.6 °F - 26.6 °F 26% 30.06 in 10.0 mi East 5.8 mph - N/A   Clear
4:55 PM 64.4 °F - 28.4 °F 26% 30.06 in 10.0 mi SE 10.4 mph - N/A   Clear
5:15 PM 64.4 °F - 28.4 °F 26% 30.05 in 10.0 mi SSE 10.4 mph - N/A   Clear
5:34 PM 62.6 °F - 26.6 °F 26% 30.05 in 10.0 mi SSE 16.1 mph 19.6 mph N/A   Clear
5:55 PM 62.6 °F - 28.4 °F 27% 30.05 in 10.0 mi SE 9.2 mph 18.4 mph N/A   Clear
6:15 PM 62.6 °F - 26.6 °F 26% 30.06 in 10.0 mi SE 8.1 mph - N/A   Clear
6:35 PM 60.8 °F - 26.6 °F 27% 30.05 in 10.0 mi SE 11.5 mph 17.3 mph N/A   Clear
6:55 PM 60.8 °F - 26.6 °F 27% 30.06 in 10.0 mi ESE 6.9 mph - N/A   Clear
7:15 PM 59.0 °F - 26.6 °F 29% 30.06 in 10.0 mi Calm Calm - N/A   Clear
7:35 PM 57.2 °F - 26.6 °F 31% 30.06 in 10.0 mi SE 6.9 mph - N/A   Clear
7:55 PM 55.4 °F - 26.6 °F 33% 30.07 in 10.0 mi SE 8.1 mph - N/A   Clear
8:15 PM 51.8 °F - 24.8 °F 35% 30.07 in 10.0 mi SE 5.8 mph - N/A   Clear
8:35 PM 50.0 °F - 26.6 °F 40% 30.08 in 10.0 mi SE 6.9 mph - N/A   Clear
8:55 PM 48.2 °F - 26.6 °F 43% 30.08 in 10.0 mi ESE 5.8 mph - N/A   Clear
9:15 PM 46.4 °F 43.5 °F 26.6 °F 46% 30.09 in 10.0 mi ESE 5.8 mph - N/A   Clear
9:35 PM 44.6 °F 42.2 °F 24.8 °F 46% 30.09 in 10.0 mi ESE 4.6 mph - N/A   Clear
9:55 PM 42.8 °F - 24.8 °F 49% 30.09 in 10.0 mi Calm Calm - N/A   Clear
10:15 PM 41.0 °F - 24.8 °F 53% 30.10 in 10.0 mi Calm Calm - N/A   Clear
10:35 PM 39.2 °F 35.9 °F 24.8 °F 56% 30.10 in 10.0 mi ESE 4.6 mph - N/A   Clear
10:55 PM 39.2 °F 37.0 °F 26.6 °F 61% 30.11 in 10.0 mi ESE 3.5 mph - N/A   Clear
11:15 PM 42.8 °F 38.0 °F 26.6 °F 53% 30.11 in 10.0 mi ESE 8.1 mph - N/A   Clear
11:35 PM 42.8 °F 38.6 °F 26.6 °F 53% 30.11 in 10.0 mi ESE 6.9 mph - N/A   Clear
11:55 PM 42.8 °F 38.6 °F 26.6 °F 53% 30.12 in 10.0 mi ESE 6.9 mph - N/A   Clear